sampling_time,wmo_synop_id,msc_id,stn_nam,stn_elev,lat,long,stn_typ,date_tm,rpt_typ,result_time,crnt_buoy_lat,crnt_buoy_lat_qa_summary,crnt_buoy_long,crnt_buoy_long_qa_summary,avg_air_temp_pst10mts,avg_air_temp_pst10mts_qa_summary,avg_sea_sfc_temp_pst10mts,avg_sea_sfc_temp_pst10mts_qa_summary,avg_batry_volt_pst10mts,avg_batry_volt_pst10mts_qa_summary,avg_solr_panl_crnt_pst10mts,avg_solr_panl_crnt_pst10mts_qa_summary,avg_wtr_lvl_snsr_volt_pst10mts,avg_wtr_lvl_snsr_volt_pst10mts_qa_summary,avg_wave_hgt_pst20mts,avg_wave_hgt_pst20mts_qa_summary,pk_wave_hgt_pst20mts,pk_wave_hgt_pst20mts_qa_summary,sig_wave_pd_pst20mts,sig_wave_pd_pst20mts_qa_summary,sig_wave_hgt_pst20mts,sig_wave_hgt_pst20mts_qa_summary,avg_max_wave_hgt_pst20mts,avg_max_wave_hgt_pst20mts_qa_summary,avg_max_wave_pd_pst20mts,avg_max_wave_pd_pst20mts_qa_summary,avg_wave_pd_pst20mts,avg_wave_pd_pst20mts_qa_summary,pk_wave_pd_pst20mts,pk_wave_pd_pst20mts_qa_summary,avg_stn_pres_pst10mts,avg_stn_pres_pst10mts_qa_summary,avg_wnd_spd_pst10mts,avg_wnd_spd_pst10mts_qa_summary,avg_wnd_dir_pst10mts,avg_wnd_dir_pst10mts_qa_summary,max_avg_wnd_spd_pst10mts,max_avg_wnd_spd_pst10mts_qa_summary,wnd_snsr_vert_disp,wnd_snsr_vert_disp_qa_summary,pres_tend_amt_pst3hrs,pres_tend_amt_pst3hrs_data_flag,pres_tend_char_pst3hrs,pres_tend_char_pst3hrs_data_flag,avg_mslp_pst10mts,avg_mslp_pst10mts_data_flag,avg_stn_pres_pst10mts_1,avg_stn_pres_pst10mts_2,avg_wnd_spd_pst10mts_1,avg_wnd_spd_pst10mts_2,avg_wnd_dir_pst10mts_1,avg_wnd_dir_pst10mts_2,max_avg_wnd_spd_pst10mts_1,max_avg_wnd_spd_pst10mts_2,wnd_snsr_vert_disp_1,wnd_snsr_vert_disp_2
2020-10-21T00:00:00Z,44489,9302001,West Chedabucto Bay,0.0,45.48687,-61.14100000000001,18,2020-10-21T00:00:00.000Z,108,2020-10-21T00:03:27.347Z,45.48745,100,-61.14122,100,14.2,100,12.7,100,12.6,100,0.0,100,3.6,100,0.4,100,0.9,100,5.4,100,0.6,100,0.7,100,6.3,100,3.9,100,10.5,100,1025.4,100,23.4,100,213,100,26.6,100,5.0,100,0.2,1,3,1,1025.4,1,1025.4,1025.4,23.4,22.7,213,218,26.6,25.9,5.0,4.0
2020-10-21T00:10:00Z,44489,9302001,West Chedabucto Bay,0.0,45.48687,-61.14100000000001,18,2020-10-21T00:10:00.000Z,110,2020-10-21T00:13:03.817Z,,-1,,-1,14.7,100,13.4,100,12.6,100,0.0,100,3.6,100,,-1,,-1,,-1,,-1,,-1,,-1,,-1,,-1,1025.4,100,23.0,100,218,100,25.2,100,5.0,100,0.2,1,3,1,1025.4,1,1025.4,1025.4,23.0,22.3,218,223,25.2,24.8,5.0,4.0
2020-10-21T00:20:00Z,44489,9302001,West Chedabucto Bay,0.0,45.48687,-61.14100000000001,18,2020-10-21T00:20:00.000Z,110,2020-10-21T00:23:06.191Z,45.48745,100,-61.14122,100,14.0,100,12.7,100,12.6,100,0.0,100,3.6,100,,-1,,-1,,-1,,-1,,-1,,-1,,-1,,-1,1025.4,100,23.4,100,223,100,25.9,100,5.0,100,0.5,1,1,1,1025.4,1,1025.4,1025.4,23.4,22.3,223,228,25.9,24.8,5.0,4.0
2020-10-21T00:30:00Z,44489,9302001,West Chedabucto Bay,0.0,45.48687,-61.14100000000001,18,2020-10-21T00:30:00.000Z,110,2020-10-21T00:33:05.618Z,45.48745,100,-61.14122,100,13.8,100,12.7,100,12.6,100,0.0,100,3.6,100,,-1,,-1,,-1,,-1,,-1,,-1,,-1,,-1,1025.4,100,22.3,100,226,100,24.8,100,5.0,100,0.8,1,1,1,1025.4,1,1025.4,1025.4,22.3,21.6,226,231,24.8,23.8,5.0,4.0
2020-10-21T00:40:00Z,44489,9302001,West Chedabucto Bay,0.0,45.48687,-61.14100000000001,18,2020-10-21T00:40:00.000Z,110,2020-10-21T00:43:18.868Z,45.48747,100,-61.14123000000001,100,13.8,100,12.7,100,12.6,100,0.0,100,3.6,100,,-1,,-1,,-1,,-1,,-1,,-1,,-1,,-1,1025.5,100,23.8,100,224,100,27.0,100,5.0,100,1.1,1,1,1,1025.5,1,1025.5,1025.5,23.8,23.0,224,229,27.0,26.6,5.0,4.0
2020-10-21T00:50:00Z,44489,9302001,West Chedabucto Bay,0.0,45.48687,-61.14100000000001,18,2020-10-21T00:50:00.000Z,110,2020-10-21T00:53:19.822Z,45.48743,100,-61.1412,100,13.9,100,12.7,100,12.6,100,0.0,100,3.6,100,,-1,,-1,,-1,,-1,,-1,,-1,,-1,,-1,1025.5,100,23.0,100,226,100,26.3,100,5.0,100,1.1,1,1,1,1025.5,1,1025.5,1025.5,23.0,22.3,226,231,26.3,25.6,5.0,4.0
2020-10-21T01:00:00Z,44489,9302001,West Chedabucto Bay,0.0,45.48687,-61.14100000000001,18,2020-10-21T01:00:00.000Z,108,2020-10-21T01:03:18.654Z,45.48745,100,-61.14122,100,13.9,100,12.7,100,12.6,100,0.0,100,3.6,100,0.3,100,0.8,100,5.8,100,0.5,100,0.6,100,6.9,100,4.0,100,11.1,100,1025.6,100,20.9,100,227,100,24.5,100,5.0,100,1.1,1,1,1,1025.6,1,1025.6,1025.7,20.9,20.2,227,231,24.5,23.4,5.0,4.0
2020-10-21T01:10:00Z,44489,9302001,West Chedabucto Bay,0.0,45.48687,-61.14100000000001,18,2020-10-21T01:10:00.000Z,110,2020-10-21T01:16:20.660Z,45.48747,100,-61.14123000000001,100,14.0,100,12.7,100,12.6,100,0.0,100,3.6,100,,-1,,-1,,-1,,-1,,-1,,-1,,-1,,-1,1025.9,100,19.4,100,231,100,22.3,100,5.0,100,1.1,1,2,1,1025.9,1,1025.9,1025.9,19.4,19.1,231,236,22.3,22.0,5.0,4.0
2020-10-21T01:20:00Z,44489,9302001,West Chedabucto Bay,0.0,45.48687,-61.14100000000001,18,2020-10-21T01:20:00.000Z,110,2020-10-21T01:23:35.581Z,45.48745,100,-61.1412,100,14.0,100,12.7,100,12.6,100,0.0,100,3.6,100,,-1,,-1,,-1,,-1,,-1,,-1,,-1,,-1,1026.1,100,20.9,100,238,100,25.6,100,5.0,100,0.9,1,3,1,1026.1,1,1026.1,1026.1,20.9,20.5,238,243,25.6,24.8,5.0,4.0
2020-10-21T01:30:00Z,44489,9302001,West Chedabucto Bay,0.0,45.48687,-61.14100000000001,18,2020-10-21T01:30:00.000Z,110,2020-10-21T01:33:38.035Z,45.48747,100,-61.1412,100,14.0,100,12.7,100,12.6,100,0.0,100,3.6,100,,-1,,-1,,-1,,-1,,-1,,-1,,-1,,-1,1026.1,100,22.3,100,230,100,24.5,100,5.0,100,0.6,1,3,1,1026.1,1,1026.1,1026.1,22.3,21.6,230,235,24.5,23.8,5.0,4.0
2020-10-21T01:40:00Z,44489,9302001,West Chedabucto Bay,0.0,45.48687,-61.14100000000001,18,2020-10-21T01:40:00.000Z,110,2020-10-21T01:43:33.105Z,45.48747,100,-61.14118000000001,100,14.0,100,12.7,100,12.6,100,0.0,100,3.6,100,,-1,,-1,,-1,,-1,,-1,,-1,,-1,,-1,1026.1,100,20.2,100,225,100,22.7,100,5.0,100,0.7,1,3,1,1026.1,1,1026.1,1026.1,20.2,19.4,225,230,22.7,22.3,5.0,4.0
2020-10-21T01:50:00Z,44489,9302001,West Chedabucto Bay,0.0,45.48687,-61.14100000000001,18,2020-10-21T01:50:00.000Z,110,2020-10-21T01:53:37.696Z,45.48742,100,-61.14128,100,13.9,100,12.7,100,12.6,100,0.0,100,3.6,100,,-1,,-1,,-1,,-1,,-1,,-1,,-1,,-1,1026.4,100,12.2,100,247,100,19.4,100,5.0,100,0.8,1,3,1,1026.4,1,1026.4,1026.4,12.2,11.9,247,253,19.4,19.1,5.0,4.0
2020-10-21T02:00:00Z,44489,9302001,West Chedabucto Bay,0.0,45.48687,-61.14100000000001,18,2020-10-21T02:00:00.000Z,108,2020-10-21T02:02:38.890Z,45.48745,100,-61.141169999999995,100,13.8,100,12.8,100,12.6,100,0.0,100,3.6,100,0.3,100,0.9,100,7.2,100,0.5,100,0.6,100,9.0,100,4.7,100,9.5,100,1026.4,100,11.5,100,239,100,15.1,100,5.0,100,0.9,1,3,1,1026.4,1,1026.4,1026.4,11.5,11.2,239,244,15.1,14.8,5.0,4.0
2020-10-21T02:10:00Z,44489,9302001,West Chedabucto Bay,0.0,45.48687,-61.14100000000001,18,2020-10-21T02:10:00.000Z,110,2020-10-21T02:15:38.348Z,45.48743,100,-61.1412,100,13.6,100,12.8,100,12.6,100,0.0,100,3.6,100,,-1,,-1,,-1,,-1,,-1,,-1,,-1,,-1,1026.3,100,13.0,100,230,100,16.6,100,5.0,100,1.0,1,3,1,1026.3,1,1026.3,1026.3,13.0,12.6,230,235,16.6,16.2,5.0,4.0
2020-10-21T02:20:00Z,44489,9302001,West Chedabucto Bay,0.0,45.48687,-61.14100000000001,18,2020-10-21T02:20:00.000Z,110,2020-10-21T02:22:37.177Z,45.48742,100,-61.14122,100,13.5,100,12.8,100,12.6,100,0.0,100,3.6,100,,-1,,-1,,-1,,-1,,-1,,-1,,-1,,-1,1026.5,100,4.7,100,71,100,7.6,100,5.0,100,1.1,1,3,1,1026.5,1,1026.5,1026.5,4.7,4.7,71,78,7.6,7.2,5.0,4.0
2020-10-21T02:30:00Z,44489,9302001,West Chedabucto Bay,0.0,45.48687,-61.14100000000001,18,2020-10-21T02:30:00.000Z,110,2020-10-21T02:32:41.796Z,45.4874,100,-61.1412,100,13.8,100,12.8,100,12.6,100,0.0,100,3.6,100,,-1,,-1,,-1,,-1,,-1,,-1,,-1,,-1,1026.7,100,3.6,100,344,100,9.0,100,5.0,100,1.4,1,3,1,1026.7,1,1026.7,1026.7,3.6,3.6,344,348,9.0,9.4,5.0,4.0
2020-10-21T02:40:00Z,44489,9302001,West Chedabucto Bay,0.0,45.48687,-61.14100000000001,18,2020-10-21T02:40:00.000Z,110,2020-10-21T02:42:48.003Z,45.4874,100,-61.1412,100,13.5,100,12.8,100,12.6,100,0.0,100,3.6,100,,-1,,-1,,-1,,-1,,-1,,-1,,-1,,-1,1026.7,100,1.8,100,265,100,3.2,100,5.0,100,1.5,1,3,1,1026.7,1,1026.7,1026.7,1.8,1.8,265,276,3.2,3.2,5.0,4.0
2020-10-21T02:50:00Z,44489,9302001,West Chedabucto Bay,0.0,45.48687,-61.14100000000001,18,2020-10-21T02:50:00.000Z,110,2020-10-21T02:54:55.996Z,45.48742,100,-61.1412,100,13.5,100,12.8,100,12.5,100,0.0,100,3.6,100,,-1,,-1,,-1,,-1,,-1,,-1,,-1,,-1,1026.6,100,2.2,100,91,100,4.0,100,5.0,100,1.2,1,3,1,1026.6,1,1026.6,1026.6,2.2,2.2,91,98,4.0,3.6,5.0,4.0
2020-10-21T03:00:00Z,44489,9302001,West Chedabucto Bay,0.0,45.48687,-61.14100000000001,18,2020-10-21T03:00:00.000Z,108,2020-10-21T03:04:35.569Z,45.48742,100,-61.1412,100,13.4,100,12.8,100,12.5,100,0.0,100,3.6,100,0.3,100,0.8,100,7.4,100,0.5,100,0.6,100,7.9,100,5.0,100,9.1,100,1026.5,100,4.0,100,192,100,5.8,100,5.0,100,1.2,1,1,1,1026.5,1,1026.5,1026.5,4.0,4.0,192,198,5.8,5.8,5.0,4.0
2020-10-21T03:10:00Z,44489,9302001,West Chedabucto Bay,0.0,45.48687,-61.14100000000001,18,2020-10-21T03:10:00.000Z,110,2020-10-21T03:16:07.083Z,45.48743,100,-61.14118000000001,100,13.3,100,12.8,100,12.6,100,0.0,100,3.6,100,,-1,,-1,,-1,,-1,,-1,,-1,,-1,,-1,1026.6,100,6.8,100,241,100,9.0,100,5.0,100,1.2,1,1,1,1026.6,1,1026.6,1026.6,6.8,6.1,241,246,9.0,8.6,5.0,4.0
2020-10-21T03:20:00Z,44489,9302001,West Chedabucto Bay,0.0,45.48687,-61.14100000000001,18,2020-10-21T03:20:00.000Z,110,2020-10-21T03:23:07.944Z,45.4874,100,-61.14118000000001,100,13.3,100,12.8,100,12.6,100,0.0,100,3.6,100,,-1,,-1,,-1,,-1,,-1,,-1,,-1,,-1,1026.6,100,7.6,100,249,100,9.4,100,5.0,100,1.1,1,1,1,1026.6,1,1026.6,1026.6,7.6,6.8,249,253,9.4,8.6,5.0,4.0
2020-10-21T03:30:00Z,44489,9302001,West Chedabucto Bay,0.0,45.48687,-61.14100000000001,18,2020-10-21T03:30:00.000Z,110,2020-10-21T03:33:11.769Z,45.4874,100,-61.14118000000001,100,13.2,100,12.8,100,12.6,100,0.0,100,3.6,100,,-1,,-1,,-1,,-1,,-1,,-1,,-1,,-1,1026.6,100,9.0,100,245,100,13.7,100,5.0,100,1.3,1,0,1,1026.6,1,1026.6,1026.7,9.0,7.9,245,250,13.7,13.0,5.0,4.0
2020-10-21T03:40:00Z,44489,9302001,West Chedabucto Bay,0.0,45.48687,-61.14100000000001,18,2020-10-21T03:40:00.000Z,110,2020-10-21T03:43:11.904Z,45.4874,100,-61.14118000000001,100,13.4,100,12.8,100,12.5,100,0.0,100,3.6,100,,-1,,-1,,-1,,-1,,-1,,-1,,-1,,-1,1026.7,100,9.7,100,253,100,11.5,100,5.0,100,1.2,1,1,1,1026.7,1,1026.7,1026.7,9.7,9.0,253,258,11.5,11.2,5.0,4.0
2020-10-21T03:50:00Z,44489,9302001,West Chedabucto Bay,0.0,45.48687,-61.14100000000001,18,2020-10-21T03:50:00.000Z,110,2020-10-21T03:53:14.279Z,45.48742,100,-61.14118000000001,100,13.7,100,12.8,100,12.5,100,0.0,100,3.6,100,,-1,,-1,,-1,,-1,,-1,,-1,,-1,,-1,1026.9,100,10.4,100,257,100,11.5,100,5.0,100,1.4,1,1,1,1026.9,1,1026.9,1026.9,10.4,9.7,257,261,11.5,11.2,5.0,4.0
2020-10-21T04:00:00Z,44489,9302001,West Chedabucto Bay,0.0,45.48687,-61.14100000000001,18,2020-10-21T04:00:00.000Z,108,2020-10-21T04:03:11.284Z,45.48743,100,-61.14118000000001,100,14.0,100,12.8,100,12.5,100,0.0,100,3.6,100,0.3,100,0.8,100,8.3,100,0.5,100,0.6,100,9.0,100,6.0,100,10.5,100,1026.9,100,8.3,100,268,100,10.4,100,5.0,100,1.3,1,1,1,1026.9,1,1026.9,1026.9,8.3,7.9,268,272,10.4,10.1,5.0,4.0
2020-10-21T04:10:00Z,44489,9302001,West Chedabucto Bay,0.0,45.48687,-61.14100000000001,18,2020-10-21T04:10:00.000Z,110,2020-10-21T04:16:21.395Z,45.4874,100,-61.141169999999995,100,14.1,100,12.8,100,12.5,100,0.0,100,3.6,100,,-1,,-1,,-1,,-1,,-1,,-1,,-1,,-1,1027.2,100,10.4,100,272,100,12.2,100,5.0,100,1.3,1,3,1,1027.2,1,1027.2,1027.2,10.4,10.1,272,277,12.2,11.9,5.0,4.0
2020-10-21T04:20:00Z,44489,9302001,West Chedabucto Bay,0.0,45.48687,-61.14100000000001,18,2020-10-21T04:20:00.000Z,110,2020-10-21T04:23:24.527Z,45.48738,100,-61.14117,100,14.1,100,12.8,100,12.6,100,0.0,100,3.6,100,,-1,,-1,,-1,,-1,,-1,,-1,,-1,,-1,1027.3,100,11.5,100,286,100,13.7,100,5.0,100,1.2,1,3,1,1027.3,1,1027.3,1027.3,11.5,11.2,286,291,13.7,13.0,5.0,4.0
2020-10-21T04:30:00Z,44489,9302001,West Chedabucto Bay,0.0,45.48687,-61.14100000000001,18,2020-10-21T04:30:00.000Z,110,2020-10-21T04:33:26.148Z,45.48738,100,-61.14115,100,14.3,100,12.8,100,12.5,100,0.0,100,3.6,100,,-1,,-1,,-1,,-1,,-1,,-1,,-1,,-1,1027.3,100,11.5,100,285,100,13.3,100,5.0,100,1.2,1,2,1,1027.3,1,1027.3,1027.3,11.5,11.2,285,290,13.3,12.6,5.0,4.0
2020-10-21T04:40:00Z,44489,9302001,West Chedabucto Bay,0.0,45.48687,-61.14100000000001,18,2020-10-21T04:40:00.000Z,110,2020-10-21T04:43:31.825Z,45.48743,100,-61.14118000000001,100,14.2,100,12.8,100,12.5,100,0.0,100,3.6,100,,-1,,-1,,-1,,-1,,-1,,-1,,-1,,-1,1027.5,100,9.7,100,287,100,12.6,100,5.0,100,1.4,1,3,1,1027.5,1,1027.5,1027.5,9.7,9.4,287,291,12.6,12.2,5.0,4.0
2020-10-21T04:50:00Z,44489,9302001,West Chedabucto Bay,0.0,45.48687,-61.14100000000001,18,2020-10-21T04:50:00.000Z,110,2020-10-21T04:53:32.593Z,45.487429999999996,100,-61.1412,100,14.3,100,12.8,100,12.5,100,0.0,100,3.6,100,,-1,,-1,,-1,,-1,,-1,,-1,,-1,,-1,1027.6,100,9.0,100,280,100,11.9,100,5.0,100,1.2,1,3,1,1027.6,1,1027.6,1027.6,9.0,8.3,280,284,11.9,11.5,5.0,4.0
2020-10-21T05:00:00Z,44489,9302001,West Chedabucto Bay,0.0,45.48687,-61.14100000000001,18,2020-10-21T05:00:00.000Z,108,2020-10-21T05:03:34.301Z,45.48742,100,-61.14118000000001,100,14.3,100,12.8,100,12.5,100,0.0,100,3.6,100,0.3,100,0.7,100,8.2,100,0.5,100,0.6,100,8.5,100,6.3,100,10.0,100,1027.5,100,8.6,100,282,100,12.6,100,5.0,100,1.1,1,3,1,1027.5,1,1027.5,1027.6,8.6,7.9,282,287,12.6,12.2,5.0,4.0
2020-10-21T05:10:00Z,44489,9302001,West Chedabucto Bay,0.0,45.48687,-61.14100000000001,18,2020-10-21T05:10:00.000Z,110,2020-10-21T05:15:39.039Z,45.48738,100,-61.14118000000001,100,14.2,100,12.8,100,12.5,100,0.0,100,3.6,100,,-1,,-1,,-1,,-1,,-1,,-1,,-1,,-1,1027.6,100,7.9,100,300,100,9.7,100,5.0,100,1.3,1,3,1,1027.6,1,1027.6,1027.6,7.9,7.2,300,305,9.7,9.4,5.0,4.0
2020-10-21T05:20:00Z,44489,9302001,West Chedabucto Bay,0.0,45.48687,-61.14100000000001,18,2020-10-21T05:20:00.000Z,110,2020-10-21T05:23:39.620Z,45.4874,100,-61.14118000000001,100,14.0,100,12.8,100,12.5,100,0.0,100,3.6,100,,-1,,-1,,-1,,-1,,-1,,-1,,-1,,-1,1027.6,100,4.7,100,302,100,6.5,100,5.0,100,1.0,1,3,1,1027.6,1,1027.6,1027.6,4.7,4.3,302,307,6.5,6.5,5.0,4.0
2020-10-21T05:30:00Z,44489,9302001,West Chedabucto Bay,0.0,45.48687,-61.14100000000001,18,2020-10-21T05:30:00.000Z,110,2020-10-21T05:33:47.868Z,45.48742,100,-61.14118000000001,100,14.0,100,12.8,100,12.5,100,0.0,100,3.6,100,,-1,,-1,,-1,,-1,,-1,,-1,,-1,,-1,1027.8,100,6.1,100,258,100,7.9,100,5.0,100,1.1,1,3,1,1027.8,1,1027.8,1027.8,6.1,6.1,258,263,7.9,7.9,5.0,4.0
2020-10-21T05:40:00Z,44489,9302001,West Chedabucto Bay,0.0,45.48687,-61.14100000000001,18,2020-10-21T05:40:00.000Z,110,2020-10-21T05:42:47.377Z,45.4874,100,-61.14117,100,13.8,100,12.8,100,12.5,100,0.0,100,3.6,100,,-1,,-1,,-1,,-1,,-1,,-1,,-1,,-1,1027.7,100,5.8,100,251,100,7.6,100,5.0,100,1.1,1,3,1,1027.7,1,1027.7,1027.7,5.8,5.8,251,258,7.6,7.2,5.0,4.0
2020-10-21T05:50:00Z,44489,9302001,West Chedabucto Bay,0.0,45.48687,-61.14100000000001,18,2020-10-21T05:50:00.000Z,110,2020-10-21T05:52:50.176Z,45.4874,100,-61.14117,100,13.5,100,12.8,100,12.5,100,0.0,100,3.6,100,,-1,,-1,,-1,,-1,,-1,,-1,,-1,,-1,1027.8,100,6.1,100,231,100,9.0,100,5.0,100,1.2,1,1,1,1027.8,1,1027.8,1027.8,6.1,6.1,231,238,9.0,8.6,5.0,4.0
2020-10-21T06:00:00Z,44489,9302001,West Chedabucto Bay,0.0,45.48687,-61.14100000000001,18,2020-10-21T06:00:00.000Z,108,2020-10-21T06:02:52.154Z,45.4874,100,-61.14118000000001,100,13.3,100,12.8,100,12.5,100,0.0,100,3.6,100,0.3,100,0.8,100,8.9,100,0.5,100,0.6,100,8.6,100,6.8,100,10.5,100,1027.9,100,7.6,100,217,100,9.4,100,5.0,100,1.4,1,2,1,1027.9,1,1027.9,1028.0,7.6,7.2,217,224,9.4,9.4,5.0,4.0
2020-10-21T06:10:00Z,44489,9302001,West Chedabucto Bay,0.0,45.48687,-61.14100000000001,18,2020-10-21T06:10:00.000Z,110,2020-10-21T06:15:46.770Z,45.4874,100,-61.14117,100,13.2,100,12.8,100,12.5,100,0.0,100,3.6,100,,-1,,-1,,-1,,-1,,-1,,-1,,-1,,-1,1027.8,100,5.8,100,234,100,8.6,100,5.0,100,1.3,1,1,1,1027.8,1,1027.8,1027.8,5.8,5.4,234,241,8.6,9.0,5.0,4.0
2020-10-21T06:20:00Z,44489,9302001,West Chedabucto Bay,0.0,45.48687,-61.14100000000001,18,2020-10-21T06:20:00.000Z,110,2020-10-21T06:22:50.891Z,45.4874,100,-61.141169999999995,100,13.1,100,12.8,100,12.5,100,0.0,100,3.6,100,,-1,,-1,,-1,,-1,,-1,,-1,,-1,,-1,1027.8,100,4.0,100,273,100,7.6,100,5.0,100,1.3,1,1,1,1027.8,1,1027.8,1027.8,4.0,3.6,273,280,7.6,6.8,5.0,4.0
2020-10-21T06:30:00Z,44489,9302001,West Chedabucto Bay,0.0,45.48687,-61.14100000000001,18,2020-10-21T06:30:00.000Z,110,2020-10-21T06:32:49.270Z,45.4874,100,-61.14118000000001,100,13.1,100,12.8,100,12.5,100,0.0,100,3.6,100,,-1,,-1,,-1,,-1,,-1,,-1,,-1,,-1,1028.1,100,9.4,100,268,100,11.2,100,5.0,100,1.5,1,1,1,1028.1,1,1028.1,1028.2,9.4,7.9,268,273,11.2,10.1,5.0,4.0
2020-10-21T06:40:00Z,44489,9302001,West Chedabucto Bay,0.0,45.48687,-61.14100000000001,18,2020-10-21T06:40:00.000Z,110,2020-10-21T06:43:06.018Z,45.48738,100,-61.14117,100,13.2,100,12.8,100,12.5,100,0.0,100,3.6,100,,-1,,-1,,-1,,-1,,-1,,-1,,-1,,-1,1028.1,100,9.0,100,280,100,11.2,100,5.0,100,1.4,1,1,1,1028.1,1,1028.1,1028.1,9.0,7.9,280,285,11.2,10.8,5.0,4.0
2020-10-21T06:50:00Z,44489,9302001,West Chedabucto Bay,0.0,45.48687,-61.14100000000001,18,2020-10-21T06:50:00.000Z,110,2020-10-21T06:53:04.944Z,45.4874,100,-61.14115,100,13.2,100,12.8,100,12.5,100,0.0,100,3.6,100,,-1,,-1,,-1,,-1,,-1,,-1,,-1,,-1,1028.1,100,7.6,100,313,100,9.4,100,5.0,100,1.2,1,1,1,1028.1,1,1028.1,1028.1,7.6,7.2,313,318,9.4,9.4,5.0,4.0
2020-10-21T07:00:00Z,44489,9302001,West Chedabucto Bay,0.0,45.48687,-61.14100000000001,18,2020-10-21T07:00:00.000Z,108,2020-10-21T07:03:03.312Z,45.4874,100,-61.14117,100,13.5,100,12.8,100,12.5,100,0.0,100,3.6,100,0.3,100,0.7,100,8.8,100,0.4,100,0.5,100,8.7,100,6.9,100,10.5,100,1028.2,100,9.4,100,313,100,11.5,100,5.0,100,1.3,1,1,1,1028.2,1,1028.2,1028.2,9.4,9.0,313,318,11.5,10.8,5.0,4.0
2020-10-21T07:10:00Z,44489,9302001,West Chedabucto Bay,0.0,45.48687,-61.14100000000001,18,2020-10-21T07:10:00.000Z,110,2020-10-21T07:16:04.762Z,45.4874,100,-61.14118000000001,100,13.6,100,12.8,100,12.5,100,0.0,100,3.6,100,,-1,,-1,,-1,,-1,,-1,,-1,,-1,,-1,1028.1,100,10.4,100,317,100,11.9,100,5.0,100,0.9,1,1,1,1028.1,1,1028.1,1028.1,10.4,10.1,317,322,11.9,11.5,5.0,4.0
2020-10-21T07:20:00Z,44489,9302001,West Chedabucto Bay,0.0,45.48687,-61.14100000000001,18,2020-10-21T07:20:00.000Z,110,2020-10-21T07:23:04.647Z,45.48737,100,-61.14118000000001,100,13.7,100,12.8,100,12.5,100,0.0,100,3.6,100,,-1,,-1,,-1,,-1,,-1,,-1,,-1,,-1,1028.2,100,11.2,100,325,100,14.4,100,5.0,100,1.0,1,3,1,1028.2,1,1028.2,1028.2,11.2,10.8,325,330,14.4,14.0,5.0,4.0
2020-10-21T07:30:00Z,44489,9302001,West Chedabucto Bay,0.0,45.48687,-61.14100000000001,18,2020-10-21T07:30:00.000Z,110,2020-10-21T07:33:08.525Z,45.48738,100,-61.141169999999995,100,13.6,100,12.8,100,12.5,100,0.0,100,3.6,100,,-1,,-1,,-1,,-1,,-1,,-1,,-1,,-1,1028.4,100,9.7,100,330,100,12.2,100,5.0,100,1.1,1,1,1,1028.4,1,1028.4,1028.4,9.7,9.4,330,335,12.2,11.9,5.0,4.0
2020-10-21T07:40:00Z,44489,9302001,West Chedabucto Bay,0.0,45.48687,-61.14100000000001,18,2020-10-21T07:40:00.000Z,110,2020-10-21T07:43:09.374Z,45.4874,100,-61.141169999999995,100,13.6,100,12.8,100,12.5,100,0.0,100,3.6,100,,-1,,-1,,-1,,-1,,-1,,-1,,-1,,-1,1028.4,100,9.4,100,336,100,13.0,100,5.0,100,0.9,1,3,1,1028.4,1,1028.4,1028.4,9.4,9.0,336,341,13.0,12.6,5.0,4.0
2020-10-21T07:50:00Z,44489,9302001,West Chedabucto Bay,0.0,45.48687,-61.14100000000001,18,2020-10-21T07:50:00.000Z,110,2020-10-21T07:53:09.624Z,45.48737,100,-61.14115,100,13.6,100,12.8,100,12.5,100,0.0,100,3.6,100,,-1,,-1,,-1,,-1,,-1,,-1,,-1,,-1,1028.6,100,9.7,100,323,100,11.5,100,5.0,100,1.0,1,3,1,1028.6,1,1028.6,1028.6,9.7,9.4,323,328,11.5,11.5,5.0,4.0
2020-10-21T08:00:00Z,44489,9302001,West Chedabucto Bay,0.0,45.48687,-61.14100000000001,18,2020-10-21T08:00:00.000Z,108,2020-10-21T08:03:31.024Z,45.48738,100,-61.14117,100,13.4,100,12.8,100,12.5,100,0.0,100,3.6,100,0.3,100,0.7,100,8.9,100,0.5,100,0.6,100,8.9,100,7.2,100,10.0,100,1028.6,100,7.9,100,333,100,10.1,100,5.0,100,1.1,1,2,1,1028.6,1,1028.6,1028.6,7.9,7.6,333,338,10.1,10.1,5.0,4.0
2020-10-21T08:10:00Z,44489,9302001,West Chedabucto Bay,0.0,45.48687,-61.14100000000001,18,2020-10-21T08:10:00.000Z,110,2020-10-21T08:16:30.981Z,45.48738,100,-61.14117,100,13.4,100,12.8,100,12.5,100,0.0,100,3.6,100,,-1,,-1,,-1,,-1,,-1,,-1,,-1,,-1,1028.5,100,7.9,100,351,100,10.1,100,5.0,100,1.0,1,3,1,1028.5,1,1028.5,1028.6,7.9,7.9,351,356,10.1,10.1,5.0,4.0
2020-10-21T08:20:00Z,44489,9302001,West Chedabucto Bay,0.0,45.48687,-61.14100000000001,18,2020-10-21T08:20:00.000Z,110,2020-10-21T08:23:33.795Z,45.48738,100,-61.14118000000001,100,13.3,100,12.8,100,12.5,100,0.0,100,3.6,100,,-1,,-1,,-1,,-1,,-1,,-1,,-1,,-1,1028.6,100,10.4,100,342,100,13.7,100,5.0,100,1.0,1,3,1,1028.6,1,1028.6,1028.6,10.4,10.1,342,347,13.7,13.0,5.0,4.0
2020-10-21T08:30:00Z,44489,9302001,West Chedabucto Bay,0.0,45.48687,-61.14100000000001,18,2020-10-21T08:30:00.000Z,110,2020-10-21T08:33:37.375Z,45.48738,100,-61.14118000000001,100,13.2,100,12.8,100,12.5,100,0.0,100,3.6,100,,-1,,-1,,-1,,-1,,-1,,-1,,-1,,-1,1028.6,100,11.2,100,354,100,13.7,100,5.0,100,0.8,1,1,1,1028.6,1,1028.6,1028.6,11.2,11.2,354,359,13.7,13.3,5.0,4.0
2020-10-21T08:40:00Z,44489,9302001,West Chedabucto Bay,0.0,45.48687,-61.14100000000001,18,2020-10-21T08:40:00.000Z,110,2020-10-21T08:43:37.227Z,45.48737,100,-61.14118000000001,100,13.1,100,12.8,100,12.4,100,0.0,100,3.6,100,,-1,,-1,,-1,,-1,,-1,,-1,,-1,,-1,1028.5,100,11.5,100,3,100,14.0,100,5.0,100,0.8,1,1,1,1028.5,1,1028.5,1028.6,11.5,11.2,3,8,14.0,13.3,5.0,4.0
2020-10-21T08:50:00Z,44489,9302001,West Chedabucto Bay,0.0,45.48687,-61.14100000000001,18,2020-10-21T08:50:00.000Z,110,2020-10-21T08:53:38.807Z,45.48737,100,-61.141169999999995,100,13.1,100,12.8,100,12.4,100,0.0,100,3.6,100,,-1,,-1,,-1,,-1,,-1,,-1,,-1,,-1,1028.8,100,11.9,100,355,100,15.8,100,5.0,100,0.9,1,1,1,1028.8,1,1028.8,1028.8,11.9,11.5,355,360,15.8,15.1,5.0,4.0
2020-10-21T09:00:00Z,44489,9302001,West Chedabucto Bay,0.0,45.48687,-61.14100000000001,18,2020-10-21T09:00:00.000Z,108,2020-10-21T09:03:54.203Z,45.48738,100,-61.14117,100,13.2,100,12.8,100,12.4,100,0.0,100,3.6,100,0.3,100,0.6,100,8.6,100,0.4,100,0.5,100,9.2,100,6.9,100,12.5,100,1028.8,100,11.5,100,350,100,14.0,100,5.0,100,0.9,1,2,1,1028.8,1,1028.8,1028.9,11.5,11.2,350,355,14.0,14.0,5.0,4.0
2020-10-21T09:10:00Z,44489,9302001,West Chedabucto Bay,0.0,45.48687,-61.14100000000001,18,2020-10-21T09:10:00.000Z,110,2020-10-21T09:15:39.247Z,45.48738,100,-61.14118000000001,100,13.1,100,12.8,100,12.5,100,0.0,100,3.6,100,,-1,,-1,,-1,,-1,,-1,,-1,,-1,,-1,1029.0,100,14.0,100,343,100,18.0,100,5.0,100,1.2,1,3,1,1029.0,1,1029.0,1029.0,14.0,13.7,343,348,18.0,18.0,5.0,4.0
2020-10-21T09:20:00Z,44489,9302001,West Chedabucto Bay,0.0,45.48687,-61.14100000000001,18,2020-10-21T09:20:00.000Z,110,2020-10-21T09:23:42.881Z,45.48738,100,-61.14118000000001,100,12.9,100,12.8,100,12.5,100,0.0,100,3.6,100,,-1,,-1,,-1,,-1,,-1,,-1,,-1,,-1,1029.3,100,18.0,100,330,100,22.3,100,5.0,100,1.5,1,3,1,1029.3,1,1029.3,1029.3,18.0,17.6,330,335,22.3,21.6,5.0,4.0
2020-10-21T09:30:00Z,44489,9302001,West Chedabucto Bay,0.0,45.48687,-61.14100000000001,18,2020-10-21T09:30:00.000Z,110,2020-10-21T09:32:54.234Z,45.48735,100,-61.14118000000001,100,12.7,100,12.8,100,12.4,100,0.0,100,3.6,100,,-1,,-1,,-1,,-1,,-1,,-1,,-1,,-1,1029.3,100,16.2,100,338,100,21.2,100,5.0,100,1.2,1,3,1,1029.3,1,1029.3,1029.3,16.2,15.8,338,343,21.2,21.6,5.0,4.0
2020-10-21T09:40:00Z,44489,9302001,West Chedabucto Bay,0.0,45.48687,-61.14100000000001,18,2020-10-21T09:40:00.000Z,110,2020-10-21T09:42:56.440Z,45.48737,100,-61.14118000000001,100,12.4,100,12.8,100,12.4,100,0.0,100,3.6,100,,-1,,-1,,-1,,-1,,-1,,-1,,-1,,-1,1029.3,100,15.1,100,343,100,17.6,100,5.0,100,1.2,1,3,1,1029.3,1,1029.3,1029.4,15.1,14.8,343,348,17.6,17.3,5.0,4.0
2020-10-21T09:50:00Z,44489,9302001,West Chedabucto Bay,0.0,45.48687,-61.14100000000001,18,2020-10-21T09:50:00.000Z,110,2020-10-21T09:52:57.438Z,45.48738,100,-61.14117,100,12.4,100,12.8,100,12.4,100,0.0,100,3.6,100,,-1,,-1,,-1,,-1,,-1,,-1,,-1,,-1,1029.3,100,14.4,100,347,100,18.0,100,5.0,100,1.2,1,3,1,1029.3,1,1029.3,1029.3,14.4,14.0,347,352,18.0,17.3,5.0,4.0